| time (UTC) | temp F | wind direction | speed MPH | gust MPH | rain 1hr in | rain 24hr in | rain mn in | humidity % | barometer mb |
| 20260904171030 | 80 | 259 | 5.0 | 9.0 | 0.00 | 0.00 | 0.00 | 56 | 1017.1 |
| 20260904165513 | 80 | 245 | 6.0 | 12.0 | 0.00 | 0.00 | 0.00 | 55 | 1017.1 |
| 20260904164513 | 81 | 259 | 6.0 | 12.0 | 0.00 | 0.00 | 0.00 | 55 | 1017.1 |
| 20260904163030 | 81 | 261 | 5.0 | 12.0 | 0.00 | 0.00 | 0.00 | 54 | 1017.0 |
| 20260904162514 | 81 | 258 | 7.0 | 15.0 | 0.00 | 0.00 | 0.00 | 54 | 1017.0 |
| 20260904162028 | 82 | 268 | 8.0 | 13.0 | 0.00 | 0.00 | 0.00 | 54 | 1017.1 |
| 20260904161514 | 82 | 255 | 7.0 | 14.0 | 0.00 | 0.00 | 0.00 | 53 | 1017.0 |
| 20260904160013 | 82 | 103 | 8.0 | 14.0 | 0.00 | 0.00 | 0.00 | 52 | 1017.0 |
| 20260904155513 | 82 | 259 | 6.0 | 12.0 | 0.00 | 0.00 | 0.00 | 53 | 1016.9 |
| 20260904153512 | 82 | 250 | 8.0 | 16.0 | 0.00 | 0.00 | 0.00 | 52 | 1016.9 |
| 20260904152027 | 82 | 258 | 10.0 | 15.0 | 0.00 | 0.00 | 0.00 | 52 | 1016.9 |
| 20260904151513 | 82 | 262 | 7.0 | 16.0 | 0.00 | 0.00 | 0.00 | 52 | 1016.9 |
| 20260904150012 | 83 | 203 | 9.0 | 18.0 | 0.00 | 0.00 | 0.00 | 49 | 1016.9 |
| 20260904145513 | 83 | 224 | 7.0 | 15.0 | 0.00 | 0.00 | 0.00 | 50 | 1016.8 |
| 20260904145027 | 83 | 249 | 5.0 | 14.0 | 0.00 | 0.00 | 0.00 | 50 | 1016.8 |
| 20260904144513 | 83 | 256 | 10.0 | 16.0 | 0.00 | 0.00 | 0.00 | 49 | 1016.8 |
| 20260904144028 | 84 | 230 | 8.0 | 14.0 | 0.00 | 0.00 | 0.00 | 48 | 1016.9 |
| 20260904143513 | 84 | 226 | 9.0 | 14.0 | 0.00 | 0.00 | 0.00 | 47 | 1016.7 |
| 20260904143028 | 85 | 240 | 9.0 | 15.0 | 0.00 | 0.00 | 0.00 | 46 | 1016.8 |
| 20260904142031 | 85 | 313 | 10.0 | 17.0 | 0.00 | 0.00 | 0.00 | 45 | 1016.8 |
| 20260904141513 | 85 | 110 | 10.0 | 22.0 | 0.00 | 0.00 | 0.00 | 46 | 1016.7 |
| 20260904141030 | 85 | 266 | 7.0 | 16.0 | 0.00 | 0.00 | 0.00 | 46 | 1016.7 |
| 20260904140013 | 85 | 243 | 12.0 | 21.0 | 0.00 | 0.00 | 0.00 | 44 | 1016.3 |
| 20260904135512 | 86 | 283 | 9.0 | 18.0 | 0.00 | 0.00 | 0.00 | 43 | 1016.4 |
| 20260904134029 | 87 | 226 | 10.0 | 16.0 | 0.00 | 0.00 | 0.00 | 43 | 1016.2 |
| 20260904133031 | 87 | 210 | 9.0 | 17.0 | 0.00 | 0.00 | 0.00 | 43 | 1016.2 |
| 20260904132514 | 87 | 262 | 9.0 | 20.0 | 0.00 | 0.00 | 0.00 | 43 | 1016.2 |
| 20260904131512 | 88 | 200 | 9.0 | 17.0 | 0.00 | 0.00 | 0.00 | 42 | 1016.3 |
| 20260904130513 | 87 | 234 | 10.0 | 15.0 | 0.00 | 0.00 | 0.00 | 42 | 1016.4 |
| 20260904130015 | 87 | 214 | 10.0 | 17.0 | 0.00 | 0.00 | 0.00 | 42 | 1016.4 |
| 20260904125029 | 88 | 250 | 10.0 | 17.0 | 0.00 | 0.00 | 0.00 | 41 | 1016.3 |
| 20260904124513 | 87 | 226 | 8.0 | 15.0 | 0.00 | 0.00 | 0.00 | 39 | 1016.2 |
| 20260904122513 | 87 | 241 | 6.0 | 16.0 | 0.00 | 0.00 | 0.00 | 41 | 1016.5 |
| 20260904122029 | 87 | 283 | 10.0 | 17.0 | 0.00 | 0.00 | 0.00 | 40 | 1016.4 |
| 20260904121512 | 88 | 240 | 7.0 | 17.0 | 0.00 | 0.00 | 0.00 | 38 | 1016.5 |
| 20260904121030 | 89 | 243 | 6.0 | 13.0 | 0.00 | 0.00 | 0.00 | 34 | 1016.5 |
| 20260904120013 | 90 | 256 | 4.0 | 12.0 | 0.00 | 0.00 | 0.00 | 32 | 1016.5 |
| 20260904115029 | 90 | 80 | 6.0 | 12.0 | 0.00 | 0.00 | 0.00 | 33 | 1016.5 |
| 20260904113514 | 88 | 107 | 3.0 | 9.0 | 0.00 | 0.00 | 0.00 | 35 | 1016.7 |
| 20260904112513 | 90 | 289 | 5.0 | 10.0 | 0.00 | 0.00 | 0.00 | 33 | 1016.7 |
| 20260904112029 | 88 | 167 | 4.0 | 13.0 | 0.00 | 0.00 | 0.00 | 34 | 1016.8 |
| 20260904111030 | 88 | 337 | 2.0 | 10.0 | 0.00 | 0.00 | 0.00 | 35 | 1016.8 |
| 20260904110014 | 88 | 216 | 5.0 | 10.0 | 0.00 | 0.00 | 0.00 | 34 | 1016.8 |
| 20260904105512 | 88 | 256 | 5.0 | 10.0 | 0.00 | 0.00 | 0.00 | 34 | 1016.8 |
| 20260904105030 | 88 | 64 | 5.0 | 9.0 | 0.00 | 0.00 | 0.00 | 36 | 1016.9 |
| 20260904104512 | 87 | 215 | 6.0 | 10.0 | 0.00 | 0.00 | 0.00 | 36 | 1017.0 |
| 20260904103512 | 87 | 81 | 4.0 | 9.0 | 0.00 | 0.00 | 0.00 | 36 | 1017.0 |
| 20260904102029 | 87 | 89 | 3.0 | 8.0 | 0.00 | 0.00 | 0.00 | 37 | 1017.1 |
| 20260904101512 | 86 | 97 | 5.0 | 9.0 | 0.00 | 0.00 | 0.00 | 37 | 1017.2 |
| 20260904101029 | 86 | 12 | 4.0 | 7.0 | 0.00 | 0.00 | 0.00 | 38 | 1017.1 |
| 20260904100013 | 86 | 105 | 2.0 | 8.0 | 0.00 | 0.00 | 0.00 | 38 | 1017.3 |
| 20260904095514 | 86 | 85 | 3.0 | 9.0 | 0.00 | 0.00 | 0.00 | 37 | 1017.3 |
| 20260904095028 | 85 | 113 | 2.0 | 8.0 | 0.00 | 0.00 | 0.00 | 40 | 1017.3 |
| 20260904094514 | 85 | 95 | 4.0 | 8.0 | 0.00 | 0.00 | 0.00 | 39 | 1017.4 |
| 20260904093514 | 84 | 176 | 3.0 | 7.0 | 0.00 | 0.00 | 0.00 | 42 | 1017.6 |
| 20260904090012 | 83 | 98 | 1.0 | 5.0 | 0.00 | 0.00 | 0.00 | 42 | 1017.4 |
| 20260904085514 | 83 | 70 | 4.0 | 8.0 | 0.00 | 0.00 | 0.00 | 41 | 1017.4 |
| 20260904085028 | 84 | 76 | 2.0 | 3.0 | 0.00 | 0.00 | 0.00 | 41 | 1017.5 |
| 20260904084028 | 82 | 92 | 4.0 | 9.0 | 0.00 | 0.00 | 0.00 | 43 | 1017.5 |
| 20260904082513 | 81 | 341 | 1.0 | 5.0 | 0.00 | 0.00 | 0.00 | 45 | 1017.2 |
| 20260904082031 | 81 | 99 | 3.0 | 8.0 | 0.00 | 0.00 | 0.00 | 44 | 1017.4 |
| 20260904081512 | 81 | 129 | 3.0 | 6.0 | 0.00 | 0.00 | 0.00 | 45 | 1017.3 |
| 20260904081028 | 81 | 62 | 3.0 | 6.0 | 0.00 | 0.00 | 0.00 | 45 | 1017.2 |
| 20260904073028 | 80 | 60 | 3.0 | 8.0 | 0.00 | 0.00 | 0.00 | 46 | 1017.1 |
| 20260904071512 | 79 | 125 | 1.0 | 8.0 | 0.00 | 0.00 | 0.00 | 47 | 1017.0 |
| 20260904071029 | 79 | 120 | 2.0 | 8.0 | 0.00 | 0.00 | 0.00 | 47 | 1017.0 |
| 20260904070012 | 79 | 89 | 2.0 | 5.0 | 0.00 | 0.00 | 0.00 | 48 | 1016.9 |
| 20260904065512 | 79 | 120 | 2.0 | 5.0 | 0.00 | 0.00 | 0.00 | 48 | 1016.9 |
| 20260904065029 | 79 | 118 | 2.0 | 3.0 | 0.00 | 0.00 | 0.00 | 49 | 1016.9 |
| 20260904063514 | 78 | 75 | 2.0 | 5.0 | 0.00 | 0.00 | 0.00 | 46 | 1016.8 |
| 20260904063028 | 78 | 41 | 3.0 | 7.0 | 0.00 | 0.00 | 0.00 | 46 | 1016.8 |
| 20260904062512 | 78 | 66 | 3.0 | 7.0 | 0.00 | 0.00 | 0.00 | 46 | 1016.8 |
| 20260904062029 | 78 | 87 | 4.0 | 7.0 | 0.00 | 0.00 | 0.00 | 46 | 1016.7 |
| 20260904061512 | 77 | 71 | 4.0 | 7.0 | 0.00 | 0.00 | 0.00 | 46 | 1016.7 |
| 20260904060012 | 76 | 100 | 3.0 | 7.0 | 0.00 | 0.00 | 0.00 | 52 | 1016.5 |
| 20260904055028 | 75 | 140 | 2.0 | 7.0 | 0.00 | 0.00 | 0.00 | 57 | 1016.4 |
| 20260904052512 | 75 | 90 | 2.0 | 3.0 | 0.00 | 0.00 | 0.00 | 47 | 1016.3 |
| 20260904052029 | 74 | 101 | 2.0 | 6.0 | 0.00 | 0.00 | 0.00 | 47 | 1016.2 |
| 20260904045513 | 73 | 65 | 2.0 | 3.0 | 0.00 | 0.00 | 0.00 | 52 | 1015.9 |
| 20260904045027 | 73 | 77 | 1.0 | 3.0 | 0.00 | 0.00 | 0.00 | 58 | 1015.8 |
| 20260904044512 | 74 | 141 | 1.0 | 2.0 | 0.00 | 0.00 | 0.00 | 60 | 1015.7 |
| 20260904044030 | 74 | 141 | 1.0 | 3.0 | 0.00 | 0.00 | 0.00 | 59 | 1015.7 |
| 20260904043512 | 74 | 92 | 2.0 | 3.0 | 0.00 | 0.00 | 0.00 | 55 | 1015.5 |
| 20260904041512 | 74 | 131 | 2.0 | 6.0 | 0.00 | 0.00 | 0.00 | 56 | 1015.5 |
| 20260904040011 | 74 | 93 | 2.0 | 6.0 | 0.00 | 0.00 | 0.00 | 56 | 1015.5 |
| 20260904034020 | 72 | 102 | 2.0 | 3.0 | 0.00 | 0.00 | 0.00 | 55 | 1015.5 |
| 20260904033511 | 72 | 79 | 1.0 | 3.0 | 0.00 | 0.00 | 0.00 | 60 | 1015.4 |
| 20260904032511 | 72 | 129 | 1.0 | 3.0 | 0.00 | 0.00 | 0.00 | 61 | 1015.3 |
| 20260904032019 | 72 | 112 | 1.0 | 2.0 | 0.00 | 0.00 | 0.00 | 63 | 1015.3 |
| 20260904031019 | 72 | 354 | 0.0 | 1.0 | 0.00 | 0.00 | 0.00 | 70 | 1015.3 |
| 20260904030011 | 72 | 354 | 0.0 | 1.0 | 0.00 | 0.00 | 0.00 | 70 | 1015.3 |
| 20260904024511 | 72 | 141 | 2.0 | 5.0 | 0.00 | 0.00 | 0.00 | 69 | 1015.4 |
| 20260904023512 | 72 | 77 | 1.0 | 3.0 | 0.00 | 0.00 | 0.00 | 67 | 1015.4 |
| 20260904022512 | 72 | 70 | 1.0 | 3.0 | 0.00 | 0.00 | 0.00 | 74 | 1015.4 |
| 20260904021511 | 72 | 35 | 1.0 | 2.0 | 0.00 | 0.00 | 0.00 | 77 | 1015.3 |
| 20260904021019 | 72 | 77 | 1.0 | 3.0 | 0.00 | 0.00 | 0.00 | 77 | 1015.4 |
| 20260904020512 | 72 | 160 | 1.0 | 3.0 | 0.00 | 0.00 | 0.00 | 78 | 1015.4 |
| 20260904015511 | 72 | 110 | 1.0 | 3.0 | 0.00 | 0.00 | 0.00 | 78 | 1015.4 |
| 20260904014511 | 72 | 124 | 2.0 | 5.0 | 0.00 | 0.00 | 0.00 | 79 | 1015.4 |
| 20260904014020 | 72 | 166 | 1.0 | 3.0 | 0.00 | 0.00 | 0.00 | 79 | 1015.5 |
| 20260904013020 | 72 | 51 | 1.0 | 3.0 | 0.00 | 0.00 | 0.00 | 79 | 1015.5 |
| 20260904012511 | 72 | 154 | 1.0 | 3.0 | 0.00 | 0.00 | 0.00 | 79 | 1015.4 |
| 20260904012019 | 72 | 97 | 3.0 | 6.0 | 0.00 | 0.00 | 0.00 | 78 | 1015.5 |
| 20260904011020 | 72 | 82 | 2.0 | 3.0 | 0.00 | 0.00 | 0.00 | 84 | 1015.4 |
| 20260904010512 | 73 | 92 | 2.0 | 3.0 | 0.00 | 0.00 | 0.00 | 85 | 1015.4 |
| 20260904010011 | 73 | 99 | 1.0 | 3.0 | 0.00 | 0.00 | 0.00 | 85 | 1015.5 |
| 20260904005512 | 73 | 89 | 2.0 | 3.0 | 0.00 | 0.00 | 0.00 | 85 | 1015.4 |
| 20260904004511 | 73 | 113 | 1.0 | 3.0 | 0.00 | 0.00 | 0.00 | 85 | 1015.6 |
| 20260904002511 | 73 | 92 | 1.0 | 3.0 | 0.00 | 0.00 | 0.00 | 86 | 1015.8 |
| 20260904002020 | 73 | 131 | 2.0 | 3.0 | 0.00 | 0.00 | 0.00 | 86 | 1015.7 |
| 20260904001019 | 73 | 112 | 2.0 | 6.0 | 0.00 | 0.00 | 0.00 | 86 | 1015.9 |
| 20260904000512 | 73 | 106 | 3.0 | 7.0 | 0.00 | 0.00 | 0.00 | 86 | 1015.9 |
| 20260904000012 | 73 | 112 | 2.0 | 6.0 | 0.00 | 0.00 | 0.00 | 85 | 1016.1 |
| 20260903234512 | 73 | 112 | 3.0 | 6.0 | 0.00 | 0.00 | 0.00 | 85 | 1016.1 |
| 20260903234020 | 74 | 73 | 2.0 | 7.0 | 0.00 | 0.00 | 0.00 | 85 | 1016.0 |
| 20260903233511 | 74 | 122 | 2.0 | 6.0 | 0.00 | 0.00 | 0.00 | 85 | 1016.1 |
| 20260903233019 | 74 | 118 | 3.0 | 7.0 | 0.00 | 0.00 | 0.00 | 84 | 1016.1 |
| 20260903232019 | 74 | 109 | 2.0 | 3.0 | 0.00 | 0.00 | 0.00 | 84 | 1016.0 |
| 20260903231020 | 74 | 79 | 3.0 | 6.0 | 0.00 | 0.00 | 0.00 | 84 | 1015.9 |
| 20260903230011 | 74 | 73 | 2.0 | 3.0 | 0.00 | 0.00 | 0.00 | 83 | 1016.0 |
| 20260903225512 | 74 | 80 | 3.0 | 6.0 | 0.00 | 0.00 | 0.00 | 83 | 1016.0 |
| 20260903224021 | 74 | 48 | 3.0 | 5.0 | 0.00 | 0.00 | 0.00 | 83 | 1015.9 |
| 20260903223019 | 74 | 79 | 3.0 | 6.0 | 0.00 | 0.00 | 0.00 | 82 | 1015.9 |
| 20260903222511 | 74 | 59 | 3.0 | 6.0 | 0.00 | 0.00 | 0.00 | 82 | 1016.0 |
| 20260903221511 | 74 | 120 | 3.0 | 6.0 | 0.00 | 0.00 | 0.00 | 81 | 1015.9 |
| 20260903215511 | 74 | 73 | 3.0 | 6.0 | 0.00 | 0.00 | 0.00 | 80 | 1015.9 |
| 20260903213511 | 75 | 75 | 4.0 | 7.0 | 0.00 | 0.00 | 0.00 | 80 | 1016.0 |
| 20260903212019 | 75 | 66 | 5.0 | 10.0 | 0.00 | 0.00 | 0.00 | 80 | 1016.1 |
| 20260903210011 | 75 | 68 | 7.0 | 12.0 | 0.00 | 0.00 | 0.00 | 77 | 1016.0 |
| 20260903205511 | 75 | 85 | 6.0 | 10.0 | 0.00 | 0.00 | 0.00 | 76 | 1016.0 |
| 20260903205019 | 75 | 79 | 6.0 | 12.0 | 0.00 | 0.00 | 0.00 | 75 | 1016.1 |
| 20260903203511 | 75 | 111 | 7.0 | 12.0 | 0.00 | 0.00 | 0.00 | 73 | 1016.1 |
| 20260903202511 | 76 | 85 | 6.0 | 12.0 | 0.00 | 0.00 | 0.00 | 72 | 1016.1 |
| 20260903194020 | 77 | 120 | 5.0 | 12.0 | 0.00 | 0.00 | 0.00 | 58 | 1016.1 |
| 20260903193019 | 77 | 88 | 7.0 | 12.0 | 0.00 | 0.00 | 0.00 | 56 | 1016.0 |
| 20260903192511 | 77 | 110 | 7.0 | 12.0 | 0.00 | 0.00 | 0.00 | 55 | 1015.9 |
| 20260903192020 | 77 | 104 | 6.0 | 10.0 | 0.00 | 0.00 | 0.00 | 55 | 1015.9 |
| 20260903185511 | 78 | 73 | 7.0 | 12.0 | 0.00 | 0.00 | 0.00 | 55 | 1015.3 |
| 20260903185019 | 78 | 111 | 6.0 | 10.0 | 0.00 | 0.00 | 0.00 | 55 | 1015.3 |
| 20260903184019 | 78 | 49 | 5.0 | 9.0 | 0.00 | 0.00 | 0.00 | 56 | 1015.0 |
| 20260903183512 | 78 | 90 | 5.0 | 8.0 | 0.00 | 0.00 | 0.00 | 55 | 1014.9 |
| 20260903182513 | 78 | 93 | 5.0 | 9.0 | 0.00 | 0.00 | 0.00 | 54 | 1014.9 |
| 20260903181520 | 79 | 64 | 6.0 | 12.0 | 0.00 | 0.00 | 0.00 | 53 | 1014.7 |
| 20260903181028 | 79 | 78 | 7.0 | 12.0 | 0.00 | 0.00 | 0.00 | 52 | 1014.7 |
| 20260903180021 | 79 | 76 | 6.0 | 9.0 | 0.00 | 0.00 | 0.00 | 50 | 1014.4 |
| 20260903175038 | 80 | 125 | 6.0 | 10.0 | 0.00 | 0.00 | 0.00 | 48 | 1014.4 |
| 20260903174039 | 80 | 114 | 7.0 | 13.0 | 0.00 | 0.00 | 0.00 | 45 | 1014.3 |
| 20260903173521 | 80 | 58 | 7.0 | 12.0 | 0.00 | 0.00 | 0.00 | 45 | 1014.2 |
| 20260903173037 | 81 | 44 | 7.0 | 13.0 | 0.00 | 0.00 | 0.00 | 45 | 1014.1 |
| 20260903172521 | 81 | 125 | 7.0 | 12.0 | 0.00 | 0.00 | 0.00 | 45 | 1014.2 |
| 20260903172038 | 81 | 48 | 6.0 | 12.0 | 0.00 | 0.00 | 0.00 | 44 | 1014.0 |